Regional Weather Roundup
Issued by NWS

Home | Current Version | Previous Version | Text Only | Print | Product List | Glossary On
Versions: 1 2 3 4 5 6 7 8 9 10 11 12 13 14 15 16 17 18 19 20 21 22 23 24 25 26 27 28 29 30 31 32 33 34 35 36 37 38 39 40 41 42 43 44 45 46 47 48 49 50
000
ASUS44 KMEG 280800
RWRTN
TENNESSEE HOURLY STATE WEATHER ROUNDUP
NATIONAL WEATHER SERVICE MEMPHIS TN
300 AM CDT THU AUG 28 2014

TNZ002-004-019-021-049-052-054-088>092-280900-
WEST TENNESSEE

CITY           SKY/WX    TMP DP  RH WIND       PRES   REMARKS
MEMPHIS INTL   CLEAR     75  66  73 CALM      30.01F
NWS MEMPHIS      N/A     71 N/A N/A MISG        N/A
JACKSON        CLEAR     71  69  93 CALM      30.02F
DYERSBURG      CLEAR     73  64  73 CALM      30.02F
PARIS          CLEAR     70  68  94 CALM      30.04S
SAVANNAH       PTCLDY    70  70 100 CALM      30.03S
$$

TNZ008-025-027-028-033-062-065-066-280900-
NORTH MIDDLE TENNESSEE

CITY           SKY/WX    TMP DP  RH WIND       PRES   REMARKS
NASHVILLE      CLEAR     74  71  91 CALM      30.03S
CLARKSVILLE    PTCLDY    73  71  93 CALM      30.02F
COOKEVILLE       N/A     64  64 100 CALM      30.05S VSB 1/2
CROSSVILLE     CLEAR     68  63  84 CALM      30.10S
$$

TNZ061-075-076-078-094-096-097-280900-
SOUTH MIDDLE TENNESSEE

CITY           SKY/WX    TMP DP  RH WIND       PRES   REMARKS
SHELBYVILLE    CLEAR     68  68 100 CALM      30.05S
$$

TNZ017-018-042-046-047-280900-
NORTHEAST TENNESSEE

CITY           SKY/WX    TMP DP  RH WIND       PRES   REMARKS
TRI CITIES     CLEAR     62  59  90 CALM      30.08F
ELIZABETHTON   SUNNY     61  57  88 NE3       30.10S
$$

TNZ012-013-036-069-073-074-280900-
CENTRAL EAST TENNESSEE

CITY           SKY/WX    TMP DP  RH WIND       PRES   REMARKS
KNOXVILLE      CLEAR     66  63  90 CALM      30.04
OAK RIDGE      CLEAR     67  65  93 CALM      30.06S
GATLINBURG     SUNNY     63  61  94 CALM      30.05S
$$

TNZ083-085-099-280900-
SOUTHEAST TENNESSEE

CITY           SKY/WX    TMP DP  RH WIND       PRES   REMARKS
CHATTANOOGA    CLEAR     69  63  81 CALM      30.04S
$$

SKY/WX REPORTED AS FAIR MEANS FEW OR NO CLOUDS BELOW
12 THOUSAND FEET.




USA.gov is the U.S. government's official web portal to all federal, state and local government web resources and services.